LOCATION_NAME,SAMPLE COLLECTION TIME,DOSE EQUIVALENT RATE (nSv/h),GAMMA COUNT RATE R02 (CPM),GAMMA COUNT RATE R03 (CPM),GAMMA COUNT RATE R04 (CPM),GAMMA COUNT RATE R05 (CPM),GAMMA COUNT RATE R06 (CPM),GAMMA COUNT RATE R07 (CPM),GAMMA COUNT RATE R08 (CPM),GAMMA COUNT RATE R09 (CPM),STATUS
KS: WICHITA,01/02/2009 06:12:00,,3518.00,444.00,190.00,223.00,268.00,169.00,26.00,26.00,APPROVED
KS: WICHITA,01/02/2009 07:12:00,,3540.00,450.00,194.00,225.00,272.00,171.00,29.00,26.00,APPROVED
KS: WICHITA,01/02/2009 08:13:00,,3579.00,456.00,202.00,230.00,272.00,168.00,28.00,25.00,APPROVED
KS: WICHITA,01/02/2009 09:13:00,,3627.00,466.00,204.00,230.00,280.00,173.00,29.00,26.00,APPROVED
KS: WICHITA,01/02/2009 10:13:00,,3623.00,469.00,208.00,239.00,281.00,174.00,30.00,27.00,APPROVED
KS: WICHITA,01/02/2009 11:13:00,,3665.00,473.00,211.00,242.00,289.00,175.00,29.00,27.00,APPROVED
KS: WICHITA,01/02/2009 12:13:00,,3682.00,481.00,211.00,241.00,288.00,179.00,31.00,27.00,APPROVED
KS: WICHITA,01/02/2009 13:14:00,,3683.00,485.00,217.00,241.00,289.00,174.00,31.00,27.00,APPROVED
KS: WICHITA,01/02/2009 14:04:00,,3714.00,485.00,222.00,243.00,290.00,177.00,30.00,28.00,APPROVED
KS: WICHITA,01/02/2009 15:19:00,,3398.00,412.00,180.00,191.00,250.00,153.00,22.00,23.00,APPROVED
KS: WICHITA,01/02/2009 16:19:00,,3471.00,432.00,184.00,211.00,261.00,162.00,26.00,24.00,APPROVED
KS: WICHITA,01/02/2009 17:20:00,,3359.00,424.00,175.00,211.00,252.00,162.00,24.00,23.00,APPROVED
KS: WICHITA,01/02/2009 18:20:00,,3314.00,418.00,173.00,205.00,247.00,164.00,23.00,24.00,APPROVED
KS: WICHITA,01/02/2009 20:20:00,,3228.00,412.00,169.00,203.00,239.00,167.00,21.00,25.00,APPROVED
KS: WICHITA,01/02/2009 23:21:00,,3277.00,423.00,168.00,206.00,250.00,170.00,23.00,24.00,APPROVED
KS: WICHITA,01/03/2009 00:21:00,,3330.00,428.00,176.00,212.00,247.00,175.00,23.00,25.00,APPROVED
KS: WICHITA,01/03/2009 01:21:00,,3361.00,428.00,177.00,217.00,256.00,172.00,25.00,25.00,APPROVED
KS: WICHITA,01/03/2009 02:22:00,,3394.00,440.00,176.00,218.00,260.00,173.00,25.00,27.00,APPROVED
KS: WICHITA,01/03/2009 03:22:00,,3406.00,432.00,177.00,225.00,260.00,174.00,25.00,24.00,APPROVED
KS: WICHITA,01/03/2009 04:22:00,,3415.00,443.00,178.00,227.00,265.00,173.00,25.00,25.00,APPROVED
KS: WICHITA,01/03/2009 05:22:00,,3502.00,458.00,184.00,236.00,272.00,178.00,27.00,26.00,APPROVED
KS: WICHITA,01/03/2009 06:23:00,,3557.00,467.00,191.00,242.00,273.00,180.00,27.00,27.00,APPROVED
KS: WICHITA,01/03/2009 07:23:00,,3568.00,469.00,190.00,240.00,273.00,181.00,27.00,26.00,APPROVED
KS: WICHITA,01/03/2009 08:23:00,,3595.00,471.00,192.00,246.00,279.00,181.00,29.00,25.00,APPROVED
KS: WICHITA,01/03/2009 09:23:00,,3647.00,481.00,198.00,247.00,281.00,181.00,29.00,27.00,APPROVED
KS: WICHITA,01/03/2009 10:23:00,,3715.00,492.00,199.00,257.00,289.00,186.00,30.00,26.00,APPROVED
KS: WICHITA,01/03/2009 11:24:00,,3734.00,508.00,203.00,271.00,293.00,194.00,31.00,28.00,APPROVED
KS: WICHITA,01/03/2009 12:24:00,,3825.00,533.00,206.00,288.00,307.00,203.00,32.00,28.00,APPROVED
KS: WICHITA,01/03/2009 13:24:00,,3868.00,552.00,211.00,301.00,313.00,214.00,34.00,31.00,APPROVED
KS: WICHITA,01/03/2009 14:24:00,,3911.00,547.00,207.00,295.00,307.00,210.00,34.00,30.00,APPROVED
KS: WICHITA,01/03/2009 15:25:00,,3920.00,542.00,212.00,294.00,313.00,211.00,34.00,28.00,APPROVED
KS: WICHITA,01/03/2009 16:25:00,,3908.00,533.00,209.00,281.00,302.00,202.00,33.00,28.00,APPROVED
KS: WICHITA,01/03/2009 17:25:00,,3885.00,525.00,211.00,277.00,306.00,200.00,32.00,28.00,APPROVED
KS: WICHITA,01/03/2009 18:25:00,,3885.00,529.00,210.00,273.00,295.00,202.00,32.00,30.00,APPROVED
KS: WICHITA,01/03/2009 19:26:00,,3887.00,530.00,209.00,274.00,301.00,204.00,32.00,30.00,APPROVED
KS: WICHITA,01/03/2009 20:26:00,,3806.00,523.00,205.00,279.00,296.00,205.00,29.00,32.00,APPROVED
KS: WICHITA,01/03/2009 21:26:00,,3767.00,511.00,202.00,270.00,295.00,202.00,30.00,29.00,APPROVED
KS: WICHITA,01/03/2009 22:26:00,,3736.00,502.00,198.00,263.00,289.00,197.00,31.00,29.00,APPROVED
KS: WICHITA,01/03/2009 23:26:00,,3663.00,480.00,201.00,246.00,284.00,180.00,29.00,26.00,APPROVED
KS: WICHITA,01/04/2009 00:27:00,,3804.00,503.00,222.00,262.00,300.00,184.00,32.00,27.00,APPROVED
KS: WICHITA,01/04/2009 01:27:00,,3832.00,496.00,221.00,250.00,298.00,183.00,32.00,27.00,APPROVED
KS: WICHITA,01/04/2009 02:27:00,,3788.00,488.00,225.00,251.00,297.00,177.00,32.00,28.00,APPROVED
KS: WICHITA,01/04/2009 03:27:00,,3694.00,477.00,216.00,237.00,289.00,176.00,31.00,25.00,APPROVED
KS: WICHITA,01/04/2009 04:28:00,,3606.00,460.00,210.00,231.00,278.00,172.00,28.00,25.00,APPROVED
KS: WICHITA,01/29/2009 15:33:00,,3177.00,376.00,163.00,171.00,224.00,138.00,20.00,23.00,APPROVED
KS: WICHITA,01/29/2009 16:33:00,,3202.00,388.00,167.00,184.00,232.00,147.00,21.00,23.00,APPROVED
KS: WICHITA,01/30/2009 17:39:00,,3240.00,409.00,171.00,196.00,241.00,161.00,22.00,24.00,APPROVED
KS: WICHITA,01/30/2009 18:39:00,,3178.00,402.00,170.00,204.00,236.00,163.00,22.00,24.00,APPROVED
KS: WICHITA,01/30/2009 19:39:00,,3082.00,394.00,165.00,198.00,233.00,169.00,21.00,24.00,APPROVED
KS: WICHITA,01/30/2009 20:40:00,,3009.00,384.00,159.00,196.00,229.00,157.00,20.00,26.00,APPROVED
KS: WICHITA,01/30/2009 21:40:00,,2948.00,372.00,159.00,183.00,223.00,160.00,20.00,23.00,APPROVED
KS: WICHITA,01/30/2009 22:40:00,,2945.00,376.00,158.00,186.00,224.00,159.00,20.00,24.00,APPROVED
KS: WICHITA,01/30/2009 23:40:00,,3017.00,376.00,158.00,184.00,223.00,162.00,20.00,25.00,APPROVED
KS: WICHITA,01/31/2009 00:41:00,,3105.00,383.00,164.00,189.00,233.00,162.00,20.00,24.00,APPROVED
KS: WICHITA,01/31/2009 01:41:00,,3142.00,385.00,163.00,184.00,227.00,158.00,21.00,24.00,APPROVED
KS: WICHITA,01/31/2009 02:41:00,,3218.00,394.00,167.00,193.00,232.00,160.00,20.00,24.00,APPROVED
KS: WICHITA,01/31/2009 03:41:00,,3266.00,407.00,169.00,192.00,240.00,160.00,23.00,23.00,APPROVED
KS: WICHITA,01/31/2009 04:42:00,,3306.00,410.00,175.00,199.00,244.00,160.00,24.00,23.00,APPROVED
KS: WICHITA,01/31/2009 05:42:00,,3339.00,418.00,179.00,205.00,249.00,162.00,24.00,25.00,APPROVED
KS: WICHITA,01/31/2009 08:43:00,,3427.00,423.00,188.00,208.00,256.00,163.00,25.00,24.00,APPROVED
KS: WICHITA,01/31/2009 09:43:00,,3488.00,438.00,189.00,214.00,264.00,161.00,26.00,25.00,APPROVED
KS: WICHITA,01/31/2009 10:43:00,,3536.00,451.00,196.00,223.00,266.00,166.00,28.00,26.00,APPROVED
KS: WICHITA,01/31/2009 11:43:00,,3505.00,441.00,196.00,221.00,268.00,168.00,27.00,26.00,APPROVED
KS: WICHITA,01/31/2009 12:43:00,,3471.00,440.00,191.00,214.00,260.00,169.00,27.00,26.00,APPROVED
KS: WICHITA,01/31/2009 13:44:00,,3475.00,437.00,190.00,218.00,259.00,165.00,25.00,26.00,APPROVED
KS: WICHITA,01/31/2009 14:44:00,,3503.00,441.00,191.00,219.00,260.00,165.00,25.00,26.00,APPROVED
KS: WICHITA,01/31/2009 15:44:00,,3567.00,447.00,191.00,223.00,265.00,170.00,27.00,28.00,APPROVED
KS: WICHITA,01/31/2009 16:44:00,,3575.00,448.00,190.00,233.00,269.00,176.00,27.00,27.00,APPROVED
KS: WICHITA,01/31/2009 17:45:00,,3443.00,448.00,186.00,227.00,264.00,178.00,26.00,26.00,APPROVED
KS: WICHITA,01/31/2009 18:45:00,,3304.00,433.00,181.00,221.00,259.00,180.00,26.00,27.00,APPROVED
KS: WICHITA,01/31/2009 19:45:00,,3146.00,418.00,175.00,216.00,248.00,178.00,23.00,27.00,APPROVED
KS: WICHITA,01/31/2009 20:45:00,,3014.00,396.00,169.00,208.00,240.00,180.00,21.00,28.00,APPROVED
KS: WICHITA,01/31/2009 23:46:00,,2919.00,372.00,164.00,189.00,232.00,171.00,20.00,27.00,APPROVED
KS: WICHITA,02/01/2009 00:46:00,,3049.00,388.00,163.00,193.00,233.00,172.00,21.00,28.00,APPROVED
KS: WICHITA,02/01/2009 01:46:00,,3165.00,397.00,169.00,200.00,239.00,173.00,20.00,26.00,APPROVED
KS: WICHITA,02/01/2009 13:49:00,,3312.00,403.00,176.00,195.00,245.00,157.00,23.00,24.00,APPROVED
KS: WICHITA,02/01/2009 14:50:00,,3257.00,391.00,173.00,187.00,238.00,152.00,21.00,25.00,APPROVED
KS: WICHITA,02/01/2009 20:51:00,,3092.00,376.00,159.00,181.00,226.00,158.00,21.00,24.00,APPROVED
KS: WICHITA,02/01/2009 21:51:00,,3106.00,372.00,160.00,182.00,228.00,153.00,20.00,23.00,APPROVED
KS: WICHITA,02/01/2009 22:51:00,,3113.00,376.00,163.00,182.00,229.00,154.00,19.00,23.00,APPROVED
KS: WICHITA,02/01/2009 23:52:00,,3114.00,370.00,163.00,181.00,226.00,153.00,19.00,23.00,APPROVED
KS: WICHITA,02/02/2009 00:52:00,,3130.00,369.00,165.00,180.00,229.00,155.00,20.00,24.00,APPROVED
KS: WICHITA,02/02/2009 01:52:00,,3146.00,375.00,164.00,183.00,230.00,154.00,21.00,23.00,APPROVED
KS: WICHITA,02/02/2009 03:52:00,,3204.00,386.00,168.00,185.00,234.00,151.00,20.00,23.00,APPROVED
KS: WICHITA,02/02/2009 04:53:00,,3249.00,395.00,176.00,190.00,243.00,153.00,21.00,23.00,APPROVED
KS: WICHITA,02/11/2009 15:30:00,,3301.00,411.00,175.00,202.00,243.00,156.00,25.00,22.00,APPROVED
KS: WICHITA,02/11/2009 16:31:00,,3162.00,393.00,166.00,191.00,234.00,152.00,22.00,24.00,APPROVED
KS: WICHITA,02/11/2009 17:31:00,,3106.00,387.00,161.00,188.00,229.00,151.00,22.00,23.00,APPROVED
KS: WICHITA,02/11/2009 20:32:00,,3013.00,370.00,155.00,182.00,220.00,149.00,20.00,23.00,APPROVED
KS: WICHITA,02/11/2009 21:32:00,,2962.00,365.00,151.00,179.00,223.00,153.00,20.00,24.00,APPROVED
KS: WICHITA,02/11/2009 22:32:00,,2935.00,363.00,155.00,178.00,219.00,155.00,20.00,23.00,APPROVED
KS: WICHITA,02/11/2009 23:32:00,,2988.00,374.00,156.00,180.00,227.00,157.00,20.00,24.00,APPROVED
KS: WICHITA,02/12/2009 15:36:00,,3110.00,382.00,165.00,191.00,231.00,146.00,22.00,24.00,APPROVED
KS: WICHITA,02/12/2009 17:37:00,,3009.00,374.00,158.00,181.00,220.00,151.00,20.00,23.00,APPROVED
KS: WICHITA,02/12/2009 18:37:00,,2976.00,369.00,157.00,181.00,220.00,152.00,21.00,23.00,APPROVED
KS: WICHITA,02/12/2009 19:37:00,,2952.00,368.00,157.00,180.00,219.00,152.00,19.00,24.00,APPROVED
KS: WICHITA,02/12/2009 20:37:00,,2939.00,362.00,155.00,181.00,216.00,150.00,19.00,23.00,APPROVED
KS: WICHITA,02/12/2009 21:37:00,,2954.00,371.00,155.00,180.00,224.00,152.00,20.00,24.00,APPROVED
KS: WICHITA,02/12/2009 23:38:00,,3058.00,377.00,158.00,185.00,228.00,158.00,20.00,23.00,APPROVED
KS: WICHITA,02/13/2009 13:41:00,,3186.00,389.00,162.00,182.00,232.00,150.00,21.00,24.00,APPROVED
KS: WICHITA,02/13/2009 14:41:00,,3168.00,381.00,163.00,185.00,234.00,152.00,21.00,22.00,APPROVED
KS: WICHITA,02/13/2009 15:42:00,,3150.00,379.00,159.00,182.00,232.00,152.00,21.00,23.00,APPROVED
KS: WICHITA,02/13/2009 16:42:00,,3135.00,383.00,160.00,185.00,230.00,158.00,20.00,24.00,APPROVED
KS: WICHITA,02/13/2009 17:42:00,,3189.00,401.00,169.00,196.00,234.00,166.00,22.00,25.00,APPROVED
KS: WICHITA,02/13/2009 18:42:00,,3235.00,416.00,170.00,202.00,243.00,170.00,23.00,26.00,APPROVED
KS: WICHITA,02/13/2009 19:43:00,,3231.00,419.00,170.00,206.00,245.00,172.00,23.00,26.00,APPROVED
KS: WICHITA,02/13/2009 20:43:00,,3088.00,397.00,165.00,196.00,235.00,164.00,21.00,24.00,APPROVED
KS: WICHITA,02/13/2009 21:43:00,,3082.00,379.00,159.00,187.00,229.00,157.00,21.00,23.00,APPROVED
KS: WICHITA,02/13/2009 22:43:00,,3095.00,374.00,157.00,181.00,227.00,152.00,21.00,23.00,APPROVED
KS: WICHITA,02/17/2009 11:03:00,,3314.00,414.00,177.00,207.00,247.00,166.00,25.00,24.00,APPROVED
KS: WICHITA,02/17/2009 12:03:00,,3334.00,425.00,175.00,206.00,251.00,173.00,23.00,25.00,APPROVED
KS: WICHITA,02/17/2009 13:03:00,,3340.00,426.00,176.00,211.00,252.00,170.00,24.00,25.00,APPROVED
KS: WICHITA,02/17/2009 14:04:00,,3319.00,426.00,172.00,211.00,252.00,169.00,24.00,25.00,APPROVED
KS: WICHITA,02/17/2009 16:25:00,,3166.00,402.00,167.00,199.00,237.00,161.00,23.00,23.00,APPROVED
KS: WICHITA,02/17/2009 17:25:00,,3201.00,413.00,169.00,207.00,243.00,166.00,23.00,24.00,APPROVED
KS: WICHITA,02/17/2009 18:25:00,,3224.00,420.00,175.00,211.00,245.00,172.00,24.00,25.00,APPROVED
KS: WICHITA,02/17/2009 21:26:00,,2917.00,394.00,162.00,205.00,235.00,173.00,21.00,28.00,APPROVED
KS: WICHITA,02/17/2009 22:26:00,,2854.00,390.00,164.00,203.00,236.00,171.00,21.00,29.00,APPROVED
KS: WICHITA,02/17/2009 23:26:00,,2843.00,390.00,160.00,201.00,234.00,179.00,20.00,29.00,APPROVED
KS: WICHITA,02/18/2009 00:26:00,,2857.00,386.00,162.00,200.00,235.00,177.00,20.00,30.00,APPROVED
KS: WICHITA,02/18/2009 01:27:00,,2894.00,383.00,159.00,190.00,231.00,174.00,19.00,28.00,APPROVED
KS: WICHITA,02/18/2009 02:27:00,,2949.00,388.00,163.00,194.00,231.00,174.00,20.00,27.00,APPROVED
KS: WICHITA,02/18/2009 03:27:00,,3009.00,398.00,164.00,198.00,235.00,173.00,20.00,28.00,APPROVED
KS: WICHITA,02/18/2009 04:27:00,,3093.00,401.00,166.00,202.00,238.00,177.00,20.00,27.00,APPROVED
KS: WICHITA,02/18/2009 10:29:00,,3465.00,434.00,178.00,214.00,257.00,171.00,25.00,24.00,APPROVED
KS: WICHITA,02/18/2009 11:29:00,,3574.00,458.00,186.00,227.00,266.00,178.00,27.00,25.00,APPROVED
KS: WICHITA,02/18/2009 15:30:00,,3450.00,455.00,190.00,235.00,265.00,170.00,27.00,25.00,APPROVED
KS: WICHITA,02/18/2009 16:30:00,,3340.00,435.00,185.00,220.00,256.00,164.00,26.00,24.00,APPROVED
KS: WICHITA,02/18/2009 17:30:00,,3264.00,415.00,179.00,214.00,249.00,163.00,26.00,25.00,APPROVED
KS: WICHITA,02/18/2009 18:31:00,,3213.00,403.00,172.00,203.00,240.00,158.00,23.00,26.00,APPROVED
KS: WICHITA,02/18/2009 19:31:00,,3162.00,399.00,167.00,197.00,236.00,158.00,23.00,24.00,APPROVED
KS: WICHITA,02/18/2009 20:31:00,,3104.00,386.00,163.00,190.00,225.00,153.00,22.00,24.00,APPROVED
KS: WICHITA,02/18/2009 21:31:00,,3079.00,382.00,161.00,187.00,230.00,155.00,21.00,24.00,APPROVED
KS: WICHITA,02/18/2009 22:32:00,,3104.00,392.00,165.00,196.00,233.00,154.00,22.00,24.00,APPROVED
KS: WICHITA,02/19/2009 19:37:00,,3085.00,377.00,162.00,181.00,223.00,145.00,20.00,23.00,APPROVED
KS: WICHITA,02/23/2009 16:23:00,,3024.00,360.00,153.00,166.00,217.00,139.00,20.00,21.00,APPROVED
KS: WICHITA,02/23/2009 17:23:00,,2998.00,359.00,155.00,173.00,224.00,147.00,19.00,22.00,APPROVED
KS: WICHITA,02/24/2009 00:25:00,,3054.00,376.00,158.00,177.00,226.00,159.00,19.00,23.00,APPROVED
KS: WICHITA,02/24/2009 01:25:00,,3106.00,378.00,159.00,179.00,229.00,158.00,19.00,24.00,APPROVED
KS: WICHITA,02/24/2009 16:29:00,,2995.00,364.00,159.00,174.00,217.00,143.00,20.00,23.00,APPROVED
KS: WICHITA,02/24/2009 17:29:00,,2969.00,365.00,157.00,176.00,217.00,150.00,20.00,23.00,APPROVED
KS: WICHITA,02/24/2009 20:30:00,,2846.00,371.00,154.00,180.00,220.00,156.00,19.00,26.00,APPROVED
KS: WICHITA,02/25/2009 18:35:00,,2924.00,383.00,164.00,206.00,237.00,167.00,22.00,27.00,APPROVED
KS: WICHITA,02/26/2009 13:39:00,,3252.00,425.00,176.00,221.00,251.00,180.00,23.00,27.00,APPROVED
KS: WICHITA,02/26/2009 15:40:00,,3173.00,428.00,175.00,220.00,247.00,175.00,24.00,29.00,APPROVED
KS: WICHITA,02/26/2009 16:40:00,,3231.00,435.00,178.00,230.00,252.00,181.00,24.00,28.00,APPROVED
KS: WICHITA,02/26/2009 17:40:00,,3217.00,439.00,181.00,231.00,256.00,183.00,25.00,29.00,APPROVED
KS: WICHITA,02/26/2009 18:40:00,,3262.00,443.00,180.00,235.00,255.00,188.00,25.00,30.00,APPROVED
KS: WICHITA,02/26/2009 20:41:00,,3168.00,438.00,179.00,233.00,256.00,180.00,23.00,31.00,APPROVED
KS: WICHITA,02/26/2009 21:41:00,,3123.00,429.00,178.00,232.00,253.00,184.00,25.00,31.00,APPROVED
KS: WICHITA,02/26/2009 22:41:00,,3020.00,407.00,174.00,215.00,243.00,176.00,22.00,30.00,APPROVED
KS: WICHITA,02/27/2009 12:45:00,,3224.00,419.00,174.00,201.00,242.00,182.00,21.00,29.00,APPROVED
KS: WICHITA,03/05/2009 16:29:00,,2989.00,383.00,159.00,191.00,228.00,166.00,19.00,26.00,APPROVED
KS: WICHITA,03/05/2009 17:29:00,,2913.00,394.00,160.00,197.00,230.00,168.00,21.00,27.00,APPROVED
KS: WICHITA,03/05/2009 18:29:00,,2842.00,386.00,160.00,203.00,237.00,176.00,21.00,30.00,APPROVED
KS: WICHITA,03/05/2009 19:29:00,,2816.00,398.00,165.00,209.00,240.00,180.00,21.00,31.00,APPROVED
KS: WICHITA,03/05/2009 22:30:00,,2759.00,387.00,164.00,206.00,233.00,180.00,22.00,31.00,APPROVED
KS: WICHITA,03/08/2009 05:43:00,,3398.00,449.00,184.00,237.00,261.00,187.00,25.00,29.00,APPROVED
KS: WICHITA,03/08/2009 06:43:00,,3664.00,490.00,202.00,256.00,281.00,199.00,29.00,31.00,APPROVED
KS: WICHITA,03/08/2009 07:44:00,,3592.00,470.00,194.00,246.00,274.00,186.00,29.00,29.00,APPROVED
KS: WICHITA,03/08/2009 08:44:00,,3587.00,465.00,196.00,245.00,277.00,181.00,29.00,27.00,APPROVED
KS: WICHITA,03/08/2009 09:44:00,,3901.00,523.00,215.00,277.00,303.00,198.00,33.00,28.00,APPROVED
KS: WICHITA,03/13/2009 22:23:00,,3111.00,370.00,159.00,178.00,227.00,151.00,20.00,22.00,APPROVED
KS: WICHITA,03/13/2009 23:23:00,,3131.00,377.00,160.00,182.00,228.00,152.00,19.00,22.00,APPROVED
KS: WICHITA,03/14/2009 00:23:00,,3151.00,380.00,159.00,182.00,230.00,153.00,20.00,22.00,APPROVED
KS: WICHITA,03/14/2009 01:24:00,,3132.00,380.00,160.00,182.00,232.00,155.00,21.00,22.00,APPROVED
KS: WICHITA,03/14/2009 02:24:00,,3162.00,381.00,160.00,181.00,230.00,155.00,21.00,23.00,APPROVED
KS: WICHITA,03/14/2009 03:24:00,,3161.00,386.00,164.00,182.00,233.00,156.00,20.00,23.00,APPROVED
KS: WICHITA,03/14/2009 04:24:00,,3206.00,385.00,163.00,188.00,236.00,158.00,20.00,22.00,APPROVED
KS: WICHITA,03/14/2009 05:25:00,,3188.00,391.00,164.00,187.00,235.00,154.00,22.00,22.00,APPROVED
KS: WICHITA,03/14/2009 06:25:00,,3176.00,386.00,161.00,185.00,231.00,159.00,20.00,23.00,APPROVED
KS: WICHITA,03/14/2009 07:25:00,,3183.00,381.00,164.00,183.00,231.00,153.00,21.00,22.00,APPROVED
KS: WICHITA,03/14/2009 08:25:00,,3210.00,389.00,163.00,185.00,234.00,153.00,20.00,23.00,APPROVED
KS: WICHITA,03/14/2009 09:26:00,,3196.00,387.00,162.00,187.00,236.00,155.00,21.00,23.00,APPROVED
KS: WICHITA,03/14/2009 10:26:00,,3215.00,390.00,170.00,189.00,233.00,156.00,22.00,23.00,APPROVED
KS: WICHITA,03/14/2009 11:26:00,,3232.00,391.00,165.00,191.00,238.00,153.00,20.00,22.00,APPROVED
KS: WICHITA,03/14/2009 12:26:00,,3284.00,400.00,166.00,196.00,238.00,157.00,22.00,23.00,APPROVED
KS: WICHITA,03/14/2009 13:26:00,,3329.00,408.00,171.00,202.00,245.00,164.00,22.00,25.00,APPROVED
KS: WICHITA,03/14/2009 14:27:00,,3350.00,420.00,171.00,204.00,244.00,163.00,24.00,23.00,APPROVED
KS: WICHITA,03/14/2009 15:27:00,,3286.00,404.00,170.00,202.00,245.00,160.00,23.00,24.00,APPROVED
KS: WICHITA,03/14/2009 16:27:00,,3208.00,395.00,171.00,195.00,239.00,163.00,22.00,23.00,APPROVED
KS: WICHITA,03/14/2009 17:27:00,,3124.00,387.00,164.00,186.00,234.00,160.00,21.00,25.00,APPROVED
KS: WICHITA,03/14/2009 18:28:00,,3039.00,373.00,160.00,185.00,228.00,157.00,21.00,24.00,APPROVED
KS: WICHITA,03/14/2009 19:28:00,,3025.00,371.00,159.00,179.00,228.00,160.00,20.00,25.00,APPROVED
KS: WICHITA,03/14/2009 20:28:00,,2964.00,367.00,157.00,180.00,217.00,159.00,19.00,24.00,APPROVED
KS: WICHITA,03/14/2009 21:28:00,,2922.00,366.00,158.00,176.00,223.00,159.00,18.00,24.00,APPROVED
KS: WICHITA,03/14/2009 22:29:00,,2904.00,361.00,154.00,175.00,223.00,157.00,18.00,25.00,APPROVED
KS: WICHITA,03/14/2009 23:29:00,,2905.00,361.00,155.00,173.00,221.00,157.00,18.00,25.00,APPROVED
KS: WICHITA,03/15/2009 00:29:00,,2980.00,363.00,157.00,176.00,227.00,160.00,18.00,26.00,APPROVED
KS: WICHITA,03/15/2009 01:29:00,,3028.00,373.00,160.00,180.00,226.00,161.00,19.00,23.00,APPROVED
KS: WICHITA,03/15/2009 02:30:00,,3090.00,375.00,159.00,179.00,227.00,158.00,20.00,23.00,APPROVED
KS: WICHITA,03/15/2009 03:30:00,,3173.00,392.00,164.00,185.00,231.00,161.00,21.00,24.00,APPROVED
KS: WICHITA,03/15/2009 04:30:00,,3243.00,405.00,169.00,198.00,239.00,162.00,21.00,25.00,APPROVED
KS: WICHITA,03/15/2009 05:30:00,,3275.00,412.00,169.00,201.00,243.00,162.00,22.00,24.00,APPROVED
KS: WICHITA,03/15/2009 06:31:00,,3294.00,409.00,169.00,203.00,246.00,161.00,22.00,24.00,APPROVED
KS: WICHITA,03/15/2009 07:31:00,,3370.00,419.00,178.00,208.00,247.00,163.00,25.00,23.00,APPROVED
KS: WICHITA,03/15/2009 08:31:00,,3369.00,421.00,176.00,208.00,249.00,165.00,24.00,23.00,APPROVED
KS: WICHITA,03/15/2009 09:31:00,,3384.00,423.00,179.00,208.00,253.00,167.00,23.00,24.00,APPROVED
KS: WICHITA,03/15/2009 10:31:00,,3364.00,418.00,177.00,205.00,254.00,166.00,24.00,25.00,APPROVED
KS: WICHITA,03/15/2009 11:32:00,,3379.00,425.00,181.00,213.00,249.00,166.00,25.00,25.00,APPROVED
KS: WICHITA,03/15/2009 12:32:00,,3424.00,428.00,180.00,217.00,257.00,169.00,25.00,25.00,APPROVED
KS: WICHITA,03/15/2009 13:32:00,,3459.00,435.00,185.00,218.00,261.00,167.00,26.00,25.00,APPROVED
KS: WICHITA,03/15/2009 14:32:00,,3473.00,442.00,188.00,219.00,261.00,173.00,25.00,26.00,APPROVED
KS: WICHITA,03/15/2009 15:33:00,,3382.00,421.00,181.00,217.00,258.00,170.00,25.00,27.00,APPROVED
KS: WICHITA,03/15/2009 16:33:00,,3252.00,406.00,175.00,207.00,244.00,168.00,23.00,24.00,APPROVED
KS: WICHITA,03/15/2009 17:33:00,,3138.00,395.00,170.00,196.00,239.00,166.00,22.00,24.00,APPROVED
KS: WICHITA,03/15/2009 18:33:00,,3109.00,393.00,167.00,196.00,240.00,166.00,21.00,25.00,APPROVED
KS: WICHITA,03/15/2009 19:34:00,,3118.00,392.00,167.00,195.00,237.00,170.00,21.00,24.00,APPROVED
KS: WICHITA,03/15/2009 20:34:00,,3084.00,394.00,167.00,198.00,239.00,170.00,20.00,25.00,APPROVED
KS: WICHITA,03/15/2009 21:34:00,,3013.00,388.00,162.00,197.00,238.00,168.00,20.00,25.00,APPROVED
KS: WICHITA,03/15/2009 22:34:00,,2981.00,381.00,165.00,194.00,232.00,172.00,20.00,26.00,APPROVED
KS: WICHITA,03/15/2009 23:35:00,,2984.00,382.00,162.00,193.00,231.00,168.00,18.00,26.00,APPROVED
KS: WICHITA,03/16/2009 00:35:00,,3011.00,386.00,165.00,190.00,232.00,169.00,20.00,26.00,APPROVED
KS: WICHITA,03/16/2009 01:35:00,,3070.00,387.00,165.00,196.00,233.00,171.00,20.00,27.00,APPROVED
KS: WICHITA,03/16/2009 02:35:00,,3124.00,393.00,166.00,194.00,231.00,166.00,20.00,25.00,APPROVED
KS: WICHITA,03/16/2009 03:35:00,,3194.00,403.00,167.00,194.00,238.00,169.00,22.00,26.00,APPROVED
KS: WICHITA,03/16/2009 04:36:00,,3217.00,402.00,170.00,195.00,239.00,169.00,20.00,27.00,APPROVED
KS: WICHITA,03/16/2009 05:36:00,,3237.00,403.00,167.00,195.00,236.00,165.00,22.00,26.00,APPROVED
KS: WICHITA,03/16/2009 06:36:00,,3244.00,401.00,168.00,199.00,240.00,170.00,22.00,24.00,APPROVED
KS: WICHITA,03/16/2009 07:36:00,,3284.00,414.00,167.00,201.00,241.00,169.00,21.00,26.00,APPROVED
KS: WICHITA,03/16/2009 08:37:00,,3310.00,412.00,171.00,205.00,244.00,168.00,23.00,25.00,APPROVED
KS: WICHITA,03/16/2009 09:37:00,,3335.00,415.00,174.00,206.00,248.00,169.00,24.00,26.00,APPROVED
KS: WICHITA,03/16/2009 10:37:00,,3345.00,417.00,176.00,208.00,246.00,171.00,24.00,24.00,APPROVED
KS: WICHITA,03/16/2009 11:37:00,,3355.00,426.00,175.00,209.00,248.00,169.00,23.00,26.00,APPROVED
KS: WICHITA,03/16/2009 12:38:00,,3418.00,430.00,179.00,216.00,256.00,170.00,25.00,26.00,APPROVED
KS: WICHITA,03/16/2009 13:08:00,,3380.00,436.00,185.00,223.00,259.00,173.00,25.00,25.00,APPROVED
KS: WICHITA,03/16/2009 14:23:00,,3121.00,378.00,161.00,175.00,222.00,152.00,20.00,22.00,APPROVED
KS: WICHITA,03/16/2009 15:23:00,,3107.00,392.00,162.00,191.00,232.00,155.00,22.00,24.00,APPROVED
KS: WICHITA,03/16/2009 16:24:00,,3080.00,388.00,161.00,200.00,229.00,162.00,21.00,25.00,APPROVED
KS: WICHITA,03/17/2009 22:30:00,,2926.00,401.00,168.00,208.00,243.00,182.00,20.00,31.00,APPROVED
KS: WICHITA,03/17/2009 23:30:00,,2951.00,405.00,169.00,209.00,240.00,185.00,21.00,32.00,APPROVED
KS: WICHITA,03/18/2009 00:30:00,,2994.00,404.00,168.00,211.00,244.00,188.00,21.00,31.00,APPROVED
KS: WICHITA,03/18/2009 01:30:00,,3087.00,420.00,173.00,212.00,244.00,187.00,21.00,29.00,APPROVED
KS: WICHITA,03/18/2009 02:31:00,,3199.00,430.00,175.00,218.00,250.00,189.00,22.00,31.00,APPROVED
KS: WICHITA,03/18/2009 03:31:00,,3269.00,442.00,182.00,231.00,258.00,191.00,22.00,31.00,APPROVED
KS: WICHITA,03/19/2009 15:23:00,,2996.00,359.00,154.00,167.00,214.00,148.00,19.00,22.00,APPROVED
KS: WICHITA,03/19/2009 16:23:00,,2956.00,359.00,150.00,171.00,217.00,147.00,18.00,22.00,APPROVED
KS: WICHITA,03/19/2009 17:23:00,,2918.00,359.00,153.00,172.00,215.00,148.00,18.00,22.00,APPROVED
KS: WICHITA,03/19/2009 18:24:00,,2846.00,352.00,152.00,172.00,211.00,152.00,18.00,23.00,APPROVED
KS: WICHITA,03/19/2009 19:24:00,,2775.00,351.00,146.00,166.00,211.00,151.00,18.00,24.00,APPROVED
KS: WICHITA,03/19/2009 21:24:00,,2720.00,348.00,147.00,167.00,213.00,157.00,18.00,24.00,APPROVED
KS: WICHITA,03/19/2009 22:24:00,,2743.00,347.00,147.00,172.00,215.00,158.00,18.00,24.00,APPROVED
KS: WICHITA,03/23/2009 14:45:00,,2903.00,366.00,158.00,184.00,223.00,159.00,18.00,26.00,APPROVED
KS: WICHITA,03/23/2009 15:46:00,,2876.00,368.00,159.00,182.00,222.00,160.00,19.00,26.00,APPROVED